User: anonymous   Login
Location: Palmerston North
(40.3500°S, 175.6170°E)
Time: 11:12:02
(UTC+12:00)
Language:

ISS - Orbit

View from above orbital plane
View from above orbital plane
View from above satellite
View from above satellite

Ground track
Ground track

The orbit data is extracted from the following two-line orbital elements,

1 25544U 98067A   24260.84765470  .00080194  00000-0  14358-2 0  9990
2 25544  51.6363 221.3415 0007739 357.9498  88.1484 15.49233013472765
Epoch (UTC): 16 September 2024 20:20:37
Eccentricity: 0.0007739
inclination: 51.6363°
perigee height: 414 km
apogee height: 424 km
right ascension of ascending node: 221.3415°
argument of perigee: 357.9498°
revolutions per day: 15.49233013
mean anomaly at epoch: 88.1484°
orbit number at epoch: 47276

The dashed part of the orbit path shows where the satellite is in the earth's shadow,  

DLR